Temp
-11 -12 -13 -13 -14 -14 -14 -10 -12 -8 -10 -11 -12 -11 -11 -11 -11 -11 -11 -11 -11 -12 -12 -12 -13 -13 -13 -13 -13 -13 -13 -13 -13 -14 -14 -14 -14 -14 -14 -14 -15 -15 -15 -15
-12 -13 -14 -13 -13 -12 -11 -11 -9 -10 -9 -10 -11 -11 -11 -11 -12 -11 -11 -11 -12 -12 -12 -12 -13 -13 -13 -13 -13 -13 -14 -14 -14 -14 -14 -14 -14 -14 -15 -15 -15 -15 -15 -17
-12 -14 -14 -14 -9 -11 -11 -11 -10 -9 -10 -12 -11 -11 -11 -12 -12 -12 -12 -12 -11 -12 -12 -12 -13 -13 -13 -13 -13 -14 -14 -14 -14 -14 -14 -15 -15 -15 -15 -15 -16 -16 -17 -18
-14 -15 -15 -8 -11 -11 -11 -11 -11 -11 -11 -12 -12 -12 -11 -11 -11 -11 -12 -12 -12 -12 -13 -13 -13 -13 -13 -13 -14 -14 -14 -14 -14 -14 -15 -15 -15 -16 -16 -16 -17 -17 -18 -18
-16 -15 -12 -11 -10 -12 -12 -11 -12 -12 -13 -12 -12 -12 -10 -11 -12 -12 -12 -12 -12 -12 -12 -12 -12 -13 -13 -14 -14 -14 -14 -14 -14 -16 -16 -16 -16 -16 -16 -17 -18 -18 -19 -19
-16 -16 -12 -11 -12 -13 -14 -9 -12 -13 -12 -12 -12 -10 -11 -12 -12 -12 -12 -12 -12 -12 -13 -13 -13 -13 -13 -14 -14 -14 -14 -15 -15 -16 -16 -16 -16 -16 -17 -18 -18 -19 -19 -19
-15 -15 -13 -13 -13 -13 -12 -11 -13 -13 -13 -12 -12 -12 -12 -12 -11 -12 -12 -12 -12 -12 -12 -13 -13 -13 -13 -13 -14 -14 -15 -15 -15 -16 -16 -16 -17 -17 -18 -18 -19 -19 -19 -21
-15 -15 -14 -13 -13 -13 -13 -13 -13 -13 -13 -13 -12 -11 -12 -12 -13 -13 -13 -13 -13 -13 -13 -13 -13 -13 -14 -14 -15 -15 -15 -15 -16 -16 -16 -17 -17 -18 -19 -19 -19 -20 -21 -22
-15 -14 -15 -15 -15 -15 -14 -14 -13 -12 -13 -13 -13 -13 -13 -13 -13 -13 -13 -13 -13 -13 -13 -13 -14 -14 -14 -15 -16 -16 -16 -16 -16 -16 -17 -18 -18 -19 -19 -19 -20 -21 -22 -23
-16 -15 -15 -15 -15 -14 -14 -14 -14 -13 -13 -13 -13 -14 -14 -14 -14 -13 -13 -13 -13 -13 -14 -14 -15 -15 -15 -16 -16 -16 -16 -16 -17 -18 -18 -19 -19 -19 -19 -20 -21 -22 -23 -25
-16 -16 -16 -16 -15 -15 -14 -15 -14 -14 -14 -14 -14 -14 -14 -14 -14 -14 -14 -14 -14 -14 -14 -15 -15 -15 -16 -16 -16 -17 -17 -18 -18 -19 -19 -19 -20 -20 -20 -21 -23 -24 -25 -26
-17 -17 -17 -16 -16 -15 -15 -15 -14 -14 -14 -14 -14 -14 -14 -14 -14 -14 -15 -15 -15 -15 -15 -15 -16 -16 -16 -17 -17 -18 -18 -19 -19 -19 -20 -20 -20 -21 -22 -23 -25 -27 -27 -27
-17 -17 -17 -17 -16 -16 -15 -15 -14 -14 -15 -15 -15 -15 -15 -15 -15 -15 -15 -15 -15 -15 -15 -16 -16 -17 -17 -17 -18 -18 -19 -19 -19 -20 -20 -21 -22 -23 -25 -26 -28 -28 -28 -28
-18 -17 -17 -17 -17 -17 -16 -16 -15 -16 -15 -15 -16 -16 -16 -16 -16 -16 -15 -15 -15 -16 -17 -17 -17 -17 -18 -18 -18 -18 -19 -19 -20 -21 -22 -22 -23 -24 -26 -28 -28 -28 -28 -28
-18 -18 -18 -18 -17 -17 -17 -16 -16 -16 -16 -16 -16 -17 -16 -16 -16 -15 -16 -16 -17 -17 -17 -18 -18 -18 -18 -18 -19 -20 -20 -20 -21 -22 -23 -23 -25 -27 -28 -28 -28 -28 -28 -28
-19 -18 -18 -18 -18 -18 -17 -17 -16 -16 -16 -17 -16 -16 -16 -16 -17 -17 -17 -17 -17 -18 -18 -18 -18 -19 -19 -20 -20 -21 -21 -22 -23 -23 -25 -26 -28 -28 -28 -28 -29 -29 -29 -29
-20 -19 -19 -18 -17 -17 -17 -17 -17 -17 -17 -16 -17 -17 -18 -18 -18 -18 -18 -18 -18 -19 -19 -19 -19 -20 -20 -20 -21 -23 -23 -24 -24 -26 -27 -28 -28 -28 -29 -29 -29 -29 -29 -29
-19 -19 -19 -18 -18 -18 -18 -18 -18 -17 -18 -18 -18 -18 -18 -19 -19 -19 -19 -19 -19 -20 -20 -20 -20 -20 -22 -23 -23 -24 -24 -26 -27 -28 -28 -29 -29 -29 -29 -29 -29 -29 -29 -29
-20 -19 -19 -19 -18 -19 -19 -19 -19 -19 -19 -19 -19 -19 -19 -19 -19 -19 -20 -20 -20 -20 -21 -21 -22 -22 -23 -24 -25 -26 -27 -28 -28 -29 -29 -29 -29 -29 -29 -29 -29 -29 -29 -29
-20 -20 -20 -20 -19 -20 -20 -19 -20 -20 -20 -20 -20 -20 -19 -20 -20 -20 -21 -21 -22 -22 -22 -23 -24 -25 -26 -27 -27 -28 -28 -29 -29 -29 -29 -29 -29 -29 -29 -29 -29 -29 -29 -29
-21 -21 -21 -21 -20 -20 -20 -21 -21 -20 -21 -21 -20 -20 -21 -21 -21 -22 -22 -22 -23 -24 -24 -25 -26 -27 -28 -28 -29 -29 -29 -29 -29 -29 -29 -29 -29 -29 -29 -29 -29 -29 -30 -29
-21 -21 -21 -21 -21 -21 -21 -21 -21 -21 -21 -21 -21 -22 -22 -22 -23 -23 -24 -25 -25 -26 -27 -27 -28 -29 -29 -29 -30 -29 -29 -29 -29 -29 -29 -29 -29 -29 -29 -30 -30 -30 -30 -30
-22 -22 -21 -21 -21 -22 -22 -22 -22 -22 -22 -22 -22 -23 -24 -25 -25 -26 -26 -27 -28 -28 -28 -29 -29 -30 -29 -29 -29 -29 -29 -29 -29 -30 -30 -30 -30 -30 -30 -30 -30 -30 -30 -30
-22 -22 -22 -22 -22 -22 -22 -22 -22 -23 -23 -24 -25 -25 -26 -27 -27 -28 -28 -28 -29 -29 -29 -29 -29 -29 -29 -29 -29 -29 -29 -30 -30 -30 -30 -30 -30 -30 -30 -30 -30 -30 -30 -31
-23 -23 -23 -23 -23 -23 -24 -23 -23 -24 -24 -24 -25 -26 -27 -28 -28 -28 -29 -29 -29 -29 -29 -29 -29 -29 -29 -29 -29 -29 -30 -30 -30 -30 -30 -30 -30 -30 -30 -31 -31 -31 -31 -31
-24 -24 -24 -24 -24 -24 -24 -24 -25 -25 -26 -27 -28 -28 -28 -28 -29 -29 -28 -28 -28 -28 -28 -29 -29 -29 -29 -30 -30 -30 -30 -30 -30 -31 -31 -31 -31 -31 -31 -31 -32 -32 -32 -32
-25 -25 -25 -25 -25 -26 -26 -27 -27 -28 -28 -29 -29 -29 -28 -28 -28 -28 -28 -28 -28 -29 -29 -30 -30 -30 -30 -30 -30 -31 -31 -31 -31 -31 -31 -31 -32 -32 -32 -32 -33 -33 -34 -35
Height
5624 5629 5634 5638 5641 5649 5651 5654 5653 5659 5666 5677 5680 5684 5688 5690 5692 5693 5694 5695 5695 5696 5699 5700 5702 5703 5703 5702 5702 5700 5699 5697 5694 5691 5687 5683 5675 5669 5664 5658 5651 5643 5633 5624
5606 5616 5618 5621 5625 5630 5637 5642 5642 5645 5650 5659 5668 5675 5677 5679 5681 5683 5684 5684 5684 5687 5689 5691 5690 5690 5690 5689 5688 5686 5686 5684 5681 5677 5672 5665 5661 5656 5650 5642 5634 5626 5618 5609
5594 5603 5603 5601 5611 5617 5624 5629 5635 5635 5649 5656 5656 5659 5664 5665 5667 5669 5670 5673 5677 5677 5677 5678 5677 5676 5676 5676 5675 5674 5673 5670 5665 5661 5657 5652 5646 5640 5633 5626 5618 5610 5603 5595
5582 5586 5581 5597 5598 5607 5613 5620 5625 5627 5632 5641 5645 5646 5648 5650 5655 5659 5662 5665 5665 5663 5664 5664 5665 5665 5665 5664 5662 5661 5659 5656 5652 5647 5642 5636 5631 5626 5618 5612 5605 5596 5588 5579
5566 5569 5577 5582 5589 5599 5602 5610 5616 5616 5619 5622 5627 5630 5634 5640 5645 5647 5649 5650 5649 5650 5653 5652 5652 5652 5652 5651 5649 5647 5645 5641 5636 5631 5626 5622 5617 5611 5605 5598 5591 5582 5573 5563
5554 5558 5561 5569 5580 5586 5591 5592 5605 5607 5611 5613 5618 5618 5629 5629 5631 5633 5634 5635 5638 5639 5638 5639 5640 5640 5639 5638 5636 5633 5630 5625 5621 5617 5613 5607 5602 5597 5591 5584 5576 5568 5558 5549
5542 5547 5554 5560 5569 5572 5581 5595 5590 5592 5599 5602 5606 5610 5614 5615 5618 5621 5624 5626 5625 5625 5626 5626 5625 5625 5624 5622 5620 5617 5614 5610 5607 5603 5598 5593 5589 5583 5577 5570 5561 5554 5544 5534
5533 5539 5545 5550 5555 5563 5569 5572 5574 5579 5587 5593 5597 5599 5602 5604 5607 5610 5611 5612 5613 5614 5614 5614 5613 5612 5609 5608 5605 5602 5600 5597 5593 5589 5585 5580 5575 5569 5562 5554 5547 5538 5529 5522
5525 5533 5538 5542 5547 5552 5557 5561 5565 5569 5576 5581 5586 5590 5592 5594 5596 5598 5600 5601 5602 5601 5601 5600 5599 5597 5595 5593 5591 5589 5586 5583 5579 5575 5570 5565 5559 5553 5546 5539 5531 5523 5516 5511
5513 5523 5527 5530 5534 5538 5545 5550 5554 5558 5562 5567 5571 5576 5579 5583 5586 5587 5587 5588 5589 5588 5587 5585 5583 5582 5580 5579 5577 5574 5571 5568 5564 5560 5555 5549 5544 5538 5531 5523 5515 5509 5504 5500
5503 5510 5515 5518 5523 5528 5534 5540 5544 5547 5550 5555 5558 5562 5565 5568 5571 5572 5573 5574 5575 5574 5572 5570 5569 5568 5567 5564 5562 5559 5557 5553 5549 5545 5539 5534 5528 5521 5514 5507 5502 5497 5491 5487
5494 5498 5502 5508 5512 5518 5524 5527 5531 5535 5538 5542 5545 5548 5551 5553 5554 5555 5556 5556 5556 5557 5556 5555 5554 5553 5551 5549 5547 5544 5540 5537 5533 5529 5523 5517 5512 5506 5499 5492 5486 5483 5479 5475
5480 5486 5492 5497 5501 5506 5509 5514 5519 5523 5526 5530 5534 5537 5540 5541 5541 5542 5543 5543 5543 5543 5542 5541 5540 5538 5536 5533 5530 5527 5524 5521 5517 5512 5507 5502 5496 5490 5483 5479 5474 5469 5465 5460
5472 5476 5483 5486 5491 5496 5500 5503 5507 5511 5515 5519 5522 5525 5529 5529 5530 5531 5531 5530 5530 5529 5528 5527 5525 5522 5520 5517 5515 5512 5508 5504 5499 5494 5490 5486 5482 5478 5475 5471 5467 5460 5452 5448
5461 5465 5472 5477 5481 5485 5489 5494 5498 5501 5504 5508 5510 5514 5515 5516 5516 5516 5515 5515 5515 5514 5512 5510 5509 5507 5504 5502 5499 5495 5491 5487 5482 5479 5475 5471 5468 5465 5463 5459 5455 5450 5445 5437
5448 5455 5462 5467 5470 5474 5478 5483 5488 5492 5494 5496 5498 5500 5501 5501 5502 5502 5501 5500 5498 5496 5496 5494 5493 5491 5488 5485 5483 5478 5474 5470 5467 5463 5459 5456 5454 5451 5449 5446 5443 5438 5432 5427
5437 5445 5450 5454 5459 5464 5467 5470 5474 5477 5479 5482 5483 5485 5486 5487 5488 5487 5486 5484 5484 5482 5481 5479 5479 5476 5472 5469 5465 5461 5458 5454 5451 5448 5445 5443 5441 5438 5435 5432 5428 5424 5420 5415
5428 5434 5439 5444 5450 5454 5456 5459 5462 5465 5466 5468 5468 5470 5471 5472 5472 5472 5472 5470 5469 5467 5465 5463 5463 5461 5456 5452 5449 5446 5443 5440 5437 5436 5433 5429 5425 5422 5419 5417 5414 5411 5407 5402
5418 5423 5429 5434 5438 5441 5444 5446 5449 5451 5454 5455 5455 5457 5458 5459 5459 5459 5457 5456 5455 5451 5450 5447 5444 5443 5441 5438 5435 5432 5429 5427 5424 5421 5417 5413 5410 5407 5405 5402 5399 5396 5392 5388
5411 5415 5419 5423 5426 5430 5432 5435 5438 5440 5442 5444 5445 5445 5447 5447 5446 5444 5442 5439 5438 5436 5435 5433 5430 5427 5424 5421 5420 5417 5414 5411 5408 5404 5401 5398 5395 5392 5390 5386 5383 5380 5375 5372
5404 5408 5410 5415 5419 5421 5423 5425 5427 5428 5430 5431 5431 5432 5433 5432 5431 5429 5426 5425 5424 5422 5420 5418 5415 5412 5410 5407 5403 5400 5397 5395 5391 5388 5385 5382 5379 5375 5372 5368 5364 5361 5358 5355
5395 5399 5402 5405 5408 5411 5413 5415 5416 5416 5416 5417 5416 5417 5418 5416 5415 5415 5413 5412 5410 5409 5406 5403 5401 5398 5395 5392 5389 5385 5381 5378 5374 5371 5367 5364 5360 5356 5351 5347 5343 5340 5337 5334
5389 5392 5395 5397 5399 5401 5402 5403 5404 5405 5404 5404 5404 5404 5404 5403 5403 5402 5400 5398 5397 5394 5391 5389 5386 5383 5380 5375 5372 5368 5363 5359 5355 5351 5347 5342 5338 5333 5328 5323 5319 5315 5312 5310
5380 5381 5383 5385 5388 5389 5391 5392 5393 5393 5393 5393 5393 5393 5392 5391 5390 5389 5387 5385 5382 5379 5377 5374 5370 5366 5362 5358 5353 5348 5344 5340 5335 5330 5325 5320 5314 5308 5303 5298 5294 5290 5287 5284
5371 5374 5376 5377 5378 5379 5381 5382 5382 5383 5383 5383 5382 5381 5379 5378 5376 5375 5373 5370 5367 5364 5361 5357 5352 5348 5344 5339 5334 5329 5324 5318 5312 5306 5299 5293 5287 5281 5276 5271 5266 5261 5257 5254
5364 5366 5367 5369 5372 5373 5373 5373 5374 5373 5372 5371 5369 5368 5366 5365 5363 5360 5358 5355 5352 5348 5343 5339 5334 5329 5323 5318 5312 5306 5300 5293 5286 5279 5273 5267 5260 5254 5248 5242 5235 5229 5224 5220
5356 5358 5361 5363 5363 5363 5363 5363 5363 5362 5361 5360 5358 5357 5354 5352 5350 5347 5344 5340 5335 5330 5324 5318 5312 5307 5301 5295 5289 5282 5275 5268 5260 5253 5246 5238 5230 5223 5216 5209 5203 5199 5195 5192
Wind_Speed
70 68 68 62 62 63 64 54 60 53 52 49 48 42 37 36 34 37 38 40 42 43 41 40 38 40 43 44 46 49 51 52 53 55 58 61 65 68 69 69 70 72 76 81
60 59 63 57 57 59 58 54 56 55 50 48 41 37 35 32 33 36 40 41 41 40 38 38 39 40 43 45 48 49 51 52 53 56 59 62 65 66 68 69 71 75 78 84
59 53 55 60 58 55 52 52 51 48 40 35 35 38 37 36 36 37 39 39 37 38 40 41 41 43 45 47 49 51 52 52 55 58 59 60 63 66 67 70 73 77 82 85
52 55 58 53 52 47 42 37 41 41 41 36 36 36 40 42 40 39 39 38 38 41 43 43 44 46 46 48 49 48 50 54 56 57 59 62 64 66 69 73 76 80 83 85
55 60 62 54 50 42 42 38 35 36 34 37 38 42 46 40 38 39 38 42 45 47 45 46 49 49 49 49 48 50 53 55 56 57 61 63 65 68 70 75 79 81 82 84
55 59 54 50 49 39 40 44 40 40 32 31 35 39 35 34 40 43 45 49 46 44 45 45 46 47 49 51 52 53 56 56 57 59 62 63 66 69 73 77 78 79 82 80
49 49 50 52 47 45 42 37 32 40 39 38 38 33 33 40 43 43 44 43 43 44 43 45 49 49 51 53 54 56 58 58 59 59 61 64 68 73 75 76 78 79 77 73
50 51 49 49 47 44 44 39 40 42 41 35 36 38 40 39 40 40 42 43 45 47 48 50 52 53 55 55 56 58 60 59 58 60 63 68 72 74 74 75 76 75 71 68
58 52 51 51 51 52 45 44 46 49 46 40 40 44 43 43 45 45 46 47 50 50 50 51 52 54 55 54 54 56 55 57 58 62 67 70 72 73 72 73 72 71 68 61
61 59 54 53 44 48 43 47 47 49 49 49 47 45 45 47 49 51 52 53 53 51 52 54 53 53 51 51 54 54 56 59 63 66 67 69 71 70 71 70 68 67 62 56
58 59 58 55 54 52 50 50 52 52 51 52 54 52 49 48 46 46 46 48 50 50 50 48 48 49 50 50 53 56 60 62 65 66 68 68 67 68 69 68 64 58 55 53
54 60 58 54 54 55 57 61 60 61 59 55 53 55 54 52 49 49 47 46 46 45 45 46 48 50 51 53 57 59 61 63 64 66 65 66 67 66 66 62 55 51 52 53
41 39 45 49 54 55 54 55 57 56 53 52 52 50 49 44 40 38 37 37 40 43 47 51 53 53 53 57 59 60 62 63 63 64 65 63 62 62 55 50 47 49 52 56
33 38 32 34 36 36 36 38 39 39 38 36 34 31 32 34 37 39 42 45 48 49 52 53 53 54 55 59 62 63 63 62 63 63 61 61 59 56 50 45 45 50 56 56
41 39 34 34 34 32 33 33 33 33 32 35 37 40 41 43 44 46 48 49 51 52 50 52 54 56 59 61 61 61 62 62 61 61 60 58 53 47 47 47 50 55 56 57
47 46 42 42 44 42 41 44 43 42 42 44 47 46 46 46 47 48 49 51 50 51 51 54 56 58 58 58 59 60 60 60 59 57 52 48 46 47 48 52 55 56 56 51
46 44 44 46 47 48 48 47 46 45 42 43 43 45 47 47 47 46 46 48 49 52 55 57 57 56 57 59 57 56 56 55 54 49 46 47 48 51 53 55 53 50 48 48
50 50 48 48 47 40 39 38 38 40 41 43 43 43 42 42 45 45 47 50 53 53 54 55 55 55 54 53 54 55 54 50 47 47 48 51 52 53 49 45 46 48 50 51
38 38 40 42 41 39 38 39 38 37 37 37 38 41 44 46 48 49 48 48 49 51 53 52 54 55 56 53 50 48 46 47 49 50 52 53 52 47 46 48 50 52 53 53
35 36 37 39 42 42 41 39 36 33 32 36 41 45 48 48 45 46 45 45 48 50 52 52 51 50 47 47 48 49 50 51 52 53 55 52 49 49 52 55 56 58 58 57
33 32 32 30 35 37 35 32 32 35 38 43 44 46 46 46 46 43 43 44 46 49 49 49 49 48 48 48 49 51 52 54 55 55 52 52 53 56 58 60 62 66 65 60
32 29 29 29 30 32 33 35 37 38 40 42 41 41 40 39 40 42 43 44 45 46 46 47 47 47 48 50 52 55 56 56 56 55 56 57 61 63 65 68 71 73 67 60
26 28 33 31 29 30 31 34 36 37 37 36 36 37 37 38 39 40 41 42 43 45 46 46 47 50 52 54 56 57 58 58 58 60 63 66 69 71 74 76 75 69 66 64
27 27 27 29 30 30 31 31 33 34 34 34 35 36 37 37 37 39 40 42 43 45 48 50 52 54 57 58 59 61 62 63 65 68 71 74 76 77 75 72 71 72 70 67
23 24 26 26 27 26 28 30 32 35 37 38 38 38 37 37 38 40 41 43 46 49 52 54 57 59 60 61 62 64 67 70 73 75 76 76 76 76 77 77 74 75 76 76
23 23 23 25 28 29 31 33 35 35 34 34 34 34 34 36 38 41 44 47 50 53 55 56 58 60 62 65 67 69 71 72 74 76 78 79 79 79 81 82 80 79 77 75
19 21 25 28 29 28 28 28 29 29 28 28 30 33 35 39 42 45 48 51 54 57 59 61 63 64 65 66 69 72 74 76 77 80 83 84 83 81 79 76 72 67 61 55
Wind_Direction
248 250 251 249 247 250 251 250 250 253 254 262 265 263 255 247 250 251 249 246 245 247 249 251 254 254 255 260 264 268 274 279 284 288 289 292 290 291 296 298 300 302 305 307
244 239 243 245 247 249 246 246 245 248 249 250 260 257 252 250 252 248 250 253 253 253 254 256 254 255 259 263 267 272 278 284 288 288 286 287 293 295 295 299 303 305 306 306
245 238 233 240 244 248 247 246 245 246 257 259 254 246 249 249 247 243 245 248 253 254 254 256 258 259 262 267 272 275 279 285 287 288 289 289 290 294 299 302 304 305 305 306
241 240 236 243 245 248 249 241 241 246 254 253 246 241 241 246 251 250 255 257 253 252 253 256 260 264 269 272 275 280 285 288 288 287 288 290 294 299 301 303 303 303 304 308
239 241 238 237 241 242 246 238 233 242 247 243 231 236 239 248 254 255 256 257 257 258 262 265 268 270 273 277 282 286 287 287 288 287 291 295 297 299 300 299 300 302 306 306
243 242 238 230 237 236 237 231 226 243 245 249 249 245 250 253 249 252 253 255 260 265 268 271 274 277 282 284 286 289 291 291 290 290 293 295 296 297 297 297 301 305 306 313
243 246 239 238 237 241 236 241 249 239 238 243 247 254 253 254 253 257 260 262 262 264 268 274 277 281 283 285 288 290 290 288 288 290 292 293 294 294 296 300 303 303 309 316
225 236 248 241 241 245 248 247 251 253 245 246 246 252 256 257 254 256 256 257 262 268 274 276 280 283 283 283 284 285 285 286 288 289 290 291 292 295 298 300 302 308 314 315
226 226 240 248 260 254 249 249 254 252 249 244 245 250 255 257 255 254 256 262 268 274 276 281 282 281 280 283 282 282 285 285 286 287 288 289 292 295 297 301 306 311 313 312
228 229 240 247 248 247 254 253 250 249 250 249 254 260 259 261 262 263 266 269 275 278 277 278 278 278 279 279 280 281 282 284 284 285 287 290 292 296 300 305 308 311 310 307
236 235 249 256 251 250 252 258 259 261 261 260 262 263 268 268 268 268 269 272 276 275 275 277 278 278 277 277 279 280 281 281 282 285 287 290 296 301 303 306 308 306 304 305
240 240 243 246 246 247 253 261 265 263 263 266 267 268 269 269 271 273 273 272 272 275 279 278 274 273 274 276 278 279 279 280 283 286 291 295 300 302 305 304 302 302 304 308
238 239 245 250 254 255 256 256 256 258 260 261 263 265 266 267 268 268 269 272 275 276 274 271 271 273 275 275 276 277 279 283 287 290 295 298 301 301 300 301 300 302 304 309
224 227 234 236 238 244 247 246 247 249 251 249 247 252 268 279 285 283 281 278 276 271 270 272 274 274 274 277 279 281 284 287 290 293 295 298 297 296 295 295 295 300 304 308
234 237 246 249 231 228 235 238 240 241 253 269 279 281 278 279 277 275 272 273 273 273 273 272 274 276 277 279 281 284 287 290 292 294 295 293 292 292 292 293 295 298 302 306
236 242 256 256 246 252 261 262 266 269 274 277 275 272 273 275 268 267 269 268 265 267 270 271 273 276 278 282 284 287 290 290 292 290 288 288 289 289 292 295 297 301 303 302
251 252 248 246 251 259 263 269 278 278 273 270 263 262 262 267 268 266 263 263 266 269 272 273 275 277 281 285 287 287 288 288 287 286 286 287 290 293 295 298 300 301 301 300
246 250 253 259 264 269 265 261 260 260 260 262 262 263 262 260 260 262 265 268 270 270 272 274 280 284 286 286 286 286 286 283 284 286 287 289 291 294 295 296 298 300 302 301
250 254 261 262 258 252 249 255 257 256 257 257 257 259 262 264 265 265 267 268 271 276 282 287 286 286 285 284 283 281 282 284 287 287 288 291 293 291 290 295 299 302 304 303
235 238 239 242 243 244 245 245 242 244 253 255 258 261 263 263 261 263 272 279 282 284 284 283 283 283 282 282 284 286 286 287 287 287 289 289 286 287 290 295 299 302 302 301
230 234 231 229 231 236 241 247 252 254 256 261 262 262 261 264 271 278 280 280 281 282 282 282 283 283 284 285 285 285 285 285 286 287 286 285 286 289 291 293 296 300 300 296
223 230 243 253 261 265 263 262 261 261 258 259 262 268 272 274 276 278 279 279 280 281 282 283 283 284 283 283 283 284 285 287 287 286 285 286 287 289 291 293 294 296 296 292
243 253 255 265 266 264 260 258 260 262 264 268 270 274 275 276 276 278 279 281 281 282 283 283 282 282 283 285 286 287 287 287 285 285 286 288 290 291 292 293 294 293 292 290
255 254 255 257 257 255 255 259 264 269 272 274 275 277 279 280 281 281 282 282 281 281 283 284 286 287 287 288 288 287 286 285 285 287 289 290 291 292 292 291 290 290 288 286
238 240 242 247 255 260 265 267 272 273 274 275 277 278 279 279 281 282 282 284 285 286 287 287 288 288 288 288 288 288 288 289 290 290 291 291 292 291 291 291 290 289 289 287
235 244 252 256 260 262 266 269 269 271 273 274 275 278 281 282 283 286 287 288 288 287 287 287 288 289 289 290 290 291 291 292 292 292 292 291 291 291 292 292 291 290 288 285
246 254 256 257 259 261 263 267 270 272 274 278 281 283 285 286 286 286 286 287 289 290 291 292 292 293 293 293 293 293 293 293 293 294 294 295 295 294 293 292 290 288 286 284